Location: Fairmont
(43.6520°N, 94.4610°W)
Time: 22:44:20
(UTC-05:00)

Cosmos-2242 - Visible Passes

Search period start: 28 August 2016 00:00
Search period end: 07 September 2016 00:00
Orbit: 592 x 619 km, 82.5° (Epoch: 28 August)

Date Brightness Start Highest point End Pass type
(mag) Time Alt. Az. Time Alt. Az. Time Alt. Az.
28 Aug 6.0 01:38:16 11° NNW 01:38:16 11° NNW 01:38:32 10° NNW visible
29 Aug 5.8 00:14:26 14° NNE 00:14:26 14° NNE 00:15:02 10° NNE visible
30 Aug 5.8 00:27:28 15° N 00:27:28 15° N 00:28:12 10° N visible
31 Aug 5.9 00:40:30 14° N 00:40:30 14° N 00:41:11 10° N visible
01 Sep 6.1 00:53:31 12° NNW 00:53:31 12° NNW 00:53:59 10° NNW visible
01 Sep 5.8 23:29:39 12° NNE 23:29:39 12° NNE 23:29:56 10° NNE visible
02 Sep 5.8 23:42:39 14° NNE 23:42:39 14° NNE 23:43:13 10° N visible
03 Sep 5.9 23:55:38 14° N 23:55:38 14° N 23:56:19 10° N visible
05 Sep 6.0 00:08:37 14° NNW 00:08:37 14° NNW 00:09:15 10° N visible
05 Sep 5.8 22:44:43 10° NNE 22:44:43 10° NNE 22:44:44 10° NNE visible
06 Sep 6.1 00:21:35 12° NNW 00:21:35 12° NNW 00:21:57 10° NNW visible
06 Sep 5.7 22:57:39 13° NNE 22:57:39 13° NNE 22:58:09 10° NNE visible
